COSMOS 1036

Satellite information

Favourite Embed

Satellite Type and Status

PAYLOADIN ORBIT

Key statistics

Satellite COSMOS 1036 at a glance.

Uptime

17080

Days in orbit

Revolutions

≈ 12.5

Per day

Orbit

LEO

Low Earth Orbit

Inclination

74.0

Latest

Satellite identification and parameters

Extended collection of information and parameters for COSMOS 1036.

Object identification

Identified? True

Debris? False

Object name: COSMOS 1036

International designator: 1978-091C

Object number (NORAD): 11045

Object ID (CCSDS): 11045

Country: COMMONWEALTH OF INDEPENDENT STATES (CIS)

Current information (Y/N): Y

RCS size: MEDIUM

Orbital parameters

Period: 115.122 minutes

Inclination: 74.0358 deg

SMA: 7839.098 km

Apoapsis: 1480.322 km

Periapsis: 1441.605 km

RAAN: 40.1388 deg

Eccentricy: 0.0024695

Argument of periapsis: 312.6235 deg

Mean anomaly: 120.0908 deg

Mean motion: 12.50845261 rev/day

Mean motion (dot): -0.00000004 rev/day2

B* drag term: 0.00007809 1/REarth

Two-line elements (TLE)

Creation date: July 8, 2025, 2:27 a.m.

Reference frame: TEME

Reference center: EARTH

Epoch: July 7, 2025, 6 p.m. UTC

TLE line 0: 0 COSMOS 1036

TLE line 1: 1 11045U 78091C 25188.75012896 -.00000004 00000-0 78090-4 0 9991

TLE line 2: 2 11045 74.0358 40.1388 0024695 312.6235 120.0908 12.50845261135151

Live tracking on map

Real-time ground track for satellite COSMOS 1036.

In-orbit conjunctions

There are no conjunctions computed for COSMOS 1036, at the moment. Check back to stay up to date, as we update our databases every day.

Go to all conjunctions

Associated space launch

Military communications satellites

COSMOS 1036 was lifted into orbit during the mission ‘Kosmos-3M | Strela-1M 153-160’, on board a Kosmos-3M space rocket.

The launch took place on Oct. 4, 1978, 3:49 a.m. from 132/1 (132L).

For more information about the launch, click the button.

Launch to space Kosmos-3M | Strela-1M 153-160
Kosmos-3M | Strela-1M 153-160

Agency: N/A

Status: Launch Successful

Launch date: Oct. 4, 1978, 3:49 a.m. UTC

Rocket: Kosmos-3M

Launch pad: 132/1 (132L)

Location: Plesetsk Cosmodrome, Russian Federation

...

Latest news about this satellite

There are no fresh news available about this satellite. Check back as we update our databases every day.


Newsletter sign-up

Weekly statistics, charts and insights to help you stay on top of the space industry.